Location: American Medical Response
(33.3472°N, 96.5511°W)
Time: 11:18:42
(UTC+00:00)

Cosmos 1805 Rocket - Pass Details

Date: 12 July 2022
Orbit: 605 x 629 km, 82.5° (Epoch: 09 August)

Event Time Altitude Azimuth Distance (km) Brightness Sun altitude
Exits shadow 08:03:01 27° 67° (ENE) 1,188 5.3 -30.6°
Drops below altitude 10° 08:05:54 10° 30° (NNE) 1,977 7.0 -30.3°
Sets 08:08:19 0° 20° (NNE) 2,882 8.2 -30.1°
